Regional Weather Roundup
Issued by NWS Cleveland, OH

Home | Current Version | Previous Version | Text Only | Print | Product List | Glossary Off
Versions: 1 2 3 4 5 6 7 8 9 10 11 12 13 14 15 16 17 18 19 20 21 22 23 24 25 26 27 28 29 30 31 32 33 34 35 36 37 38 39 40 41 42 43 44 45 46 47 48 49 50

000
ASUS41 KCLE 251410
RWRCLE
OHIO REGIONAL WEATHER ROUNDUP
NATIONAL WEATHER SERVICE WILMINGTON, OH
1000 AM EDT WED MAY 25 2016

NOTE: "FAIR" INDICATES FEW OR NO CLOUDS BELOW 12,000 FEET WITH NO
SIGNIFICANT WEATHER AND/OR OBSTRUCTIONS TO VISIBILITY.

OHZ001>008-015>018-024>027-034-035-043-044-251500-
   NORTHWEST OHIO

CITY           SKY/WX    TMP DP  RH WIND       PRES   REMARKS
DEFIANCE       FAIR      77  57  50 S10       30.11R
FINDLAY        FAIR      74  53  48 SW13      30.11R
TOLEDO EXPRESS FAIR      76  56  49 SW7       30.09R
TOLEDO EXEC    FAIR      76  56  49 SW8       30.10R
LIMA           FAIR      71  55  56 S9        30.12R
$$

OHZ009>014-019>023-028>033-038-089-251500-
   NORTHEAST OHIO

CITY           SKY/WX    TMP DP  RH WIND       PRES   REMARKS
CLE-HOPKINS    FAIR      75  53  46 SW8       30.15R
CLE-LAKEFRONT  FAIR      77  54  44 SW7       30.11R
CUY CO. ARPT   MOSUNNY   77  54  44 W12       30.14R
LORAIN-ELYRIA  FAIR      75  53  46 SW9       30.13R
ASHTABULA      FAIR      74  52  46 SW7       30.13R
AKRON-CANTON   PTSUNNY   70  52  52 SW9       30.16R
WOOSTER        FAIR      70  53  54 SW9       30.16R
MANSFIELD      FAIR      73  54  51 SW10      30.15R
YOUNGSTOWN     PTSUNNY   73  52  47 SW9       30.15R
$$

OHZ042-051>053-060>062-070>072-077>081-251500-
  SOUTHWEST OHIO

CITY           SKY/WX    TMP DP  RH WIND       PRES   REMARKS
CINC-COVINGTON CLOUDY    69  55  60 S6        30.13S
CINC-LUNKEN    PTSUNNY   68  57  68 CALM      30.14S
HAMILTON       LGT RAIN  69  62  78 CALM      30.15R
DAYTON         PTSUNNY   72  55  55 S10       30.15R
WRIGHT-PAT AFB FAIR      72  58  61 S6        30.14R
DAYTON GENERAL CLOUDY    71  53  52 S10       30.14S
WILMINGTON     CLOUDY    73  55  53 S10       30.16R
$$

OHZ036-037-039>041-045>050-054>059-063>069-073>076-082>088-251500-
  CENTRAL AND SOUTHEAST OHIO

CITY           SKY/WX    TMP DP  RH WIND       PRES   REMARKS
COLUMBUS       FAIR      71  53  52 S7        30.15S
OSU AIRPORT    FAIR      73  55  53 S9        30.15R
BOLTON FIELD   SUNNY     73  55  53 SW9       30.16R
RICKENBACK AFB FAIR      73  55  53 SW12      30.15R
NEWARK         FAIR      74  53  48 SW8       30.15S
MARION         FAIR      74  52  46 S12       30.14S
LANCASTER      FAIR      76  52  43 SW8       30.16R
ZANESVILLE     FAIR      72  55  55 SW3       30.17R
NEW PHILLY     FAIR      72  56  57 E5        30.16S
$$




USA.gov is the U.S. government's official web portal to all federal, state and local government web resources and services.